| time (UTC) | temp F | wind direction | speed knots | gust knots | rain 1hr in | rain 24hr in | rain mn in | humidity % | barometer mb |
| 20260506002509 | 55 | 287 | 0.9 | 6.1 | 0.00 | 0.00 | 0.00 | 43 | 1011.4 |
| 20260506002009 | 55 | 290 | 0.0 | 6.1 | 0.00 | 0.00 | 0.00 | 46 | 1011.3 |
| 20260506001522 | 55 | 1 | 0.9 | 5.2 | 0.00 | 0.00 | 0.00 | 47 | 1011.4 |
| 20260506001003 | 55 | 276 | 0.9 | 9.6 | 0.00 | 0.00 | 0.00 | 47 | 1011.5 |
| 20260506000505 | 55 | 182 | 0.9 | 9.6 | 0.00 | 0.00 | 0.00 | 45 | 1011.5 |
| 20260506000005 | 56 | 148 | 0.9 | 6.1 | 0.00 | 0.00 | 0.00 | 44 | 1011.4 |
| 20260505235504 | 57 | 244 | 1.7 | 6.1 | 0.00 | 0.00 | 0.00 | 43 | 1011.4 |
| 20260505235006 | 58 | 264 | 1.7 | 6.1 | 0.00 | 0.00 | 0.00 | 42 | 1011.4 |
| 20260505234510 | 58 | 46 | 1.7 | 6.1 | 0.00 | 0.00 | 0.00 | 42 | 1011.4 |
| 20260505234004 | 58 | 222 | 0.9 | 6.1 | 0.00 | 0.00 | 0.00 | 43 | 1011.5 |
| 20260505233504 | 57 | 290 | 1.7 | 6.1 | 0.00 | 0.00 | 0.00 | 43 | 1011.4 |
| 20260505233015 | 57 | 153 | 0.9 | 3.5 | 0.00 | 0.00 | 0.00 | 44 | 1011.4 |
| 20260505232511 | 57 | 176 | 0.9 | 4.3 | 0.00 | 0.00 | 0.00 | 44 | 1011.4 |
| 20260505232008 | 57 | 273 | 0.9 | 5.2 | 0.00 | 0.00 | 0.00 | 45 | 1011.5 |
| 20260505231522 | 56 | 205 | 0.9 | 5.2 | 0.00 | 0.00 | 0.00 | 45 | 1011.5 |
| 20260505231006 | 56 | 119 | 0.9 | 5.2 | 0.00 | 0.00 | 0.00 | 45 | 1011.5 |
| 20260505230509 | 56 | 283 | 1.7 | 6.1 | 0.00 | 0.00 | 0.00 | 45 | 1011.4 |
| 20260505230031 | 56 | 251 | 0.9 | 6.1 | 0.00 | 0.00 | 0.00 | 45 | 1011.4 |
| 20260505225503 | 57 | 212 | 0.9 | 4.3 | 0.00 | 0.00 | 0.00 | 44 | 1011.4 |
| 20260505225003 | 57 | 289 | 1.7 | 5.2 | 0.00 | 0.00 | 0.00 | 44 | 1011.3 |
| 20260505224507 | 57 | 347 | 0.9 | 5.2 | 0.00 | 0.00 | 0.00 | 44 | 1011.5 |
| 20260505224005 | 57 | 278 | 1.7 | 7.8 | 0.00 | 0.00 | 0.00 | 43 | 1011.4 |
| 20260505223505 | 57 | 148 | 1.7 | 7.8 | 0.00 | 0.00 | 0.00 | 43 | 1011.5 |
| 20260505223009 | 58 | 205 | 0.9 | 2.6 | 0.00 | 0.00 | 0.00 | 43 | 1011.6 |
| 20260505222505 | 58 | 103 | 0.9 | 7.8 | 0.00 | 0.00 | 0.00 | 42 | 1011.5 |
| 20260505222007 | 58 | 281 | 1.7 | 7.8 | 0.00 | 0.00 | 0.00 | 42 | 1011.6 |
| 20260505221518 | 58 | 204 | 0.9 | 5.2 | 0.00 | 0.00 | 0.00 | 41 | 1011.5 |
| 20260505221007 | 59 | 278 | 1.7 | 5.2 | 0.00 | 0.00 | 0.00 | 40 | 1011.5 |
| 20260505220506 | 60 | 263 | 0.9 | 7.8 | 0.00 | 0.00 | 0.00 | 40 | 1011.5 |
| 20260505220027 | 61 | 285 | 2.6 | 7.8 | 0.00 | 0.00 | 0.00 | 38 | 1011.4 |
| 20260505215507 | 61 | 207 | 0.9 | 9.6 | 0.00 | 0.00 | 0.00 | 40 | 1011.5 |
| 20260505215009 | 61 | 289 | 1.7 | 9.6 | 0.00 | 0.00 | 0.00 | 39 | 1011.4 |
| 20260505214526 | 62 | 2 | 1.7 | 7.8 | 0.00 | 0.00 | 0.00 | 39 | 1011.5 |
| 20260505214012 | 62 | 3 | 1.7 | 7.8 | 0.00 | 0.00 | 0.00 | 39 | 1011.4 |
| 20260505213505 | 62 | 298 | 1.7 | 6.1 | 0.00 | 0.00 | 0.00 | 38 | 1011.6 |
| 20260505213019 | 63 | 14 | 2.6 | 6.1 | 0.00 | 0.00 | 0.00 | 37 | 1011.7 |
| 20260505212508 | 62 | 293 | 2.6 | 6.1 | 0.00 | 0.00 | 0.00 | 38 | 1011.8 |
| 20260505212005 | 62 | 164 | 1.7 | 7.0 | 0.00 | 0.00 | 0.00 | 38 | 1011.8 |
| 20260505211512 | 62 | 171 | 1.7 | 7.0 | 0.00 | 0.00 | 0.00 | 37 | 1011.8 |
| 20260505211005 | 63 | 176 | 0.9 | 5.2 | 0.00 | 0.00 | 0.00 | 37 | 1011.8 |
| 20260505210507 | 63 | 266 | 0.9 | 8.7 | 0.00 | 0.00 | 0.00 | 37 | 1011.8 |
| 20260505210019 | 63 | 264 | 0.9 | 8.7 | 0.00 | 0.00 | 0.00 | 38 | 1011.7 |
| 20260505205508 | 63 | 194 | 2.6 | 8.7 | 0.00 | 0.00 | 0.00 | 37 | 1011.9 |
| 20260505205008 | 62 | 106 | 1.7 | 7.8 | 0.00 | 0.00 | 0.00 | 38 | 1011.9 |
| 20260505204521 | 62 | 214 | 1.7 | 5.2 | 0.00 | 0.00 | 0.00 | 38 | 1012.1 |
| 20260505204010 | 62 | 15 | 1.7 | 5.2 | 0.00 | 0.00 | 0.00 | 40 | 1011.9 |
| 20260505203508 | 60 | 51 | 0.9 | 7.8 | 0.00 | 0.00 | 0.00 | 40 | 1011.9 |
| 20260505203031 | 61 | 204 | 1.7 | 7.8 | 0.00 | 0.00 | 0.00 | 40 | 1012.1 |
| 20260505202510 | 59 | 295 | 0.9 | 6.1 | 0.00 | 0.00 | 0.00 | 44 | 1012.3 |
| 20260505202006 | 58 | 41 | 0.9 | 6.1 | 0.00 | 0.00 | 0.00 | 42 | 1012.3 |
| 20260505201510 | 59 | 77 | 0.9 | 5.2 | 0.00 | 0.00 | 0.00 | 41 | 1012.5 |
| 20260505201005 | 59 | 261 | 1.7 | 4.3 | 0.00 | 0.00 | 0.00 | 41 | 1012.3 |
| 20260505200505 | 60 | 56 | 1.7 | 4.3 | 0.00 | 0.00 | 0.00 | 40 | 1012.3 |
| 20260505200018 | 60 | 68 | 0.9 | 2.6 | 0.00 | 0.00 | 0.00 | 38 | 1012.1 |
| 20260505195507 | 61 | 77 | 0.9 | 4.3 | 0.00 | 0.00 | 0.00 | 38 | 1012.1 |
| 20260505195006 | 61 | 236 | 1.7 | 4.3 | 0.00 | 0.00 | 0.00 | 37 | 1012.2 |
| 20260505194519 | 62 | 63 | 1.7 | 4.3 | 0.00 | 0.00 | 0.00 | 36 | 1012.2 |
| 20260505194007 | 61 | 329 | 0.9 | 4.3 | 0.00 | 0.00 | 0.00 | 39 | 1012.1 |
| 20260505193509 | 61 | 266 | 1.7 | 6.1 | 0.00 | 0.00 | 0.00 | 38 | 1012.2 |
| 20260505193026 | 62 | 157 | 1.7 | 6.1 | 0.00 | 0.00 | 0.00 | 37 | 1012.3 |
| 20260505192509 | 62 | 254 | 1.7 | 4.3 | 0.00 | 0.00 | 0.00 | 36 | 1012.2 |
| 20260505192016 | 62 | 4 | 1.7 | 4.3 | 0.00 | 0.00 | 0.00 | 35 | 1012.2 |
| 20260505191525 | 63 | 239 | 1.7 | 6.1 | 0.00 | 0.00 | 0.00 | 34 | 1012.1 |
| 20260505191012 | 64 | 139 | 1.7 | 6.1 | 0.00 | 0.00 | 0.00 | 35 | 1012.2 |
| 20260505190517 | 64 | 352 | 1.7 | 4.3 | 0.00 | 0.00 | 0.00 | 35 | 1012.2 |
| 20260505190017 | 62 | 277 | 0.9 | 7.0 | 0.00 | 0.00 | 0.00 | 39 | 1012.2 |
| 20260505185503 | 62 | 141 | 1.7 | 7.0 | 0.00 | 0.00 | 0.00 | 36 | 1012.4 |
| 20260505185005 | 62 | 108 | 1.7 | 3.5 | 0.00 | 0.00 | 0.00 | 37 | 1012.4 |
| 20260505184518 | 62 | 231 | 0.9 | 7.0 | 0.00 | 0.00 | 0.00 | 35 | 1012.3 |
| 20260505184006 | 63 | 149 | 2.6 | 7.0 | 0.00 | 0.00 | 0.00 | 36 | 1012.3 |
| 20260505183508 | 61 | 193 | 1.7 | 6.1 | 0.00 | 0.00 | 0.00 | 36 | 1012.3 |
| 20260505183023 | 61 | 229 | 1.7 | 6.1 | 0.00 | 0.00 | 0.00 | 35 | 1012.3 |
| 20260505182506 | 61 | 139 | 1.7 | 4.3 | 0.00 | 0.00 | 0.00 | 35 | 1012.1 |
| 20260505182012 | 61 | 233 | 0.9 | 7.0 | 0.00 | 0.00 | 0.00 | 35 | 1012.3 |
| 20260505181532 | 61 | 150 | 1.7 | 7.0 | 0.00 | 0.00 | 0.00 | 34 | 1012.4 |
| 20260505181010 | 62 | 164 | 1.7 | 6.1 | 0.00 | 0.00 | 0.00 | 33 | 1012.5 |
| 20260505180512 | 62 | 229 | 0.9 | 4.3 | 0.00 | 0.00 | 0.00 | 33 | 1012.7 |
| 20260505180030 | 62 | 108 | 1.7 | 4.3 | 0.00 | 0.00 | 0.00 | 34 | 1012.8 |
| 20260505175509 | 62 | 283 | 0.9 | 5.2 | 0.00 | 0.00 | 0.00 | 33 | 1013.0 |
| 20260505175016 | 62 | 293 | 0.9 | 5.2 | 0.00 | 0.00 | 0.00 | 32 | 1012.9 |
| 20260505174515 | 63 | 257 | 1.7 | 4.3 | 0.00 | 0.00 | 0.00 | 33 | 1012.7 |
| 20260505174007 | 62 | 229 | 1.7 | 4.3 | 0.00 | 0.00 | 0.00 | 35 | 1012.5 |
| 20260505173507 | 61 | 197 | 1.7 | 5.2 | 0.00 | 0.00 | 0.00 | 34 | 1012.5 |
| 20260505173023 | 61 | 143 | 1.7 | 5.2 | 0.00 | 0.00 | 0.00 | 35 | 1013.0 |
| 20260505172506 | 60 | 290 | 0.9 | 5.2 | 0.00 | 0.00 | 0.00 | 35 | 1013.2 |
| 20260505172012 | 60 | 295 | 0.9 | 4.3 | 0.00 | 0.00 | 0.00 | 35 | 1013.2 |
| 20260505171540 | 60 | 91 | 1.7 | 4.3 | 0.00 | 0.00 | 0.00 | 36 | 1013.3 |
| 20260505171006 | 60 | 10 | 0.9 | 6.1 | 0.00 | 0.00 | 0.00 | 36 | 1013.3 |
| 20260505170504 | 59 | 177 | 1.7 | 6.1 | 0.00 | 0.00 | 0.00 | 37 | 1013.3 |
| 20260505170014 | 59 | 266 | 0.9 | 4.3 | 0.00 | 0.00 | 0.00 | 37 | 1013.4 |
| 20260505165504 | 59 | 349 | 0.9 | 4.3 | 0.00 | 0.00 | 0.00 | 38 | 1013.4 |
| 20260505165003 | 58 | 263 | 0.9 | 4.3 | 0.00 | 0.00 | 0.00 | 38 | 1013.5 |
| 20260505164514 | 57 | 297 | 0.9 | 4.3 | 0.00 | 0.00 | 0.00 | 40 | 1013.5 |
| 20260505164005 | 56 | 273 | 0.9 | 3.5 | 0.00 | 0.00 | 0.00 | 40 | 1013.6 |
| 20260505163508 | 56 | 34 | 0.9 | 3.5 | 0.00 | 0.00 | 0.00 | 39 | 1013.7 |
| 20260505163016 | 57 | 203 | 0.9 | 4.3 | 0.00 | 0.00 | 0.00 | 39 | 1013.7 |
| 20260505162506 | 57 | 253 | 1.7 | 5.2 | 0.00 | 0.00 | 0.00 | 38 | 1013.7 |
| 20260505162008 | 58 | 282 | 1.7 | 5.2 | 0.00 | 0.00 | 0.00 | 38 | 1013.7 |
| 20260505161522 | 58 | 274 | 0.9 | 3.5 | 0.00 | 0.00 | 0.00 | 39 | 1013.7 |
| 20260505161003 | 57 | 290 | 0.9 | 3.5 | 0.00 | 0.00 | 0.00 | 39 | 1013.7 |
| 20260505160506 | 56 | 292 | 0.9 | 3.5 | 0.00 | 0.00 | 0.00 | 41 | 1013.7 |
| 20260505153014 | 54 | 210 | 1.7 | 3.5 | 0.00 | 0.00 | 0.00 | 43 | 1013.9 |
| 20260505152506 | 54 | 283 | 0.9 | 3.5 | 0.00 | 0.00 | 0.00 | 43 | 1013.7 |
| 20260505152006 | 55 | 261 | 0.9 | 5.2 | 0.00 | 0.00 | 0.00 | 43 | 1013.8 |
| 20260505151524 | 55 | 79 | 0.9 | 7.0 | 0.00 | 0.00 | 0.00 | 43 | 1013.7 |
| 20260505151007 | 55 | 301 | 0.9 | 7.0 | 0.00 | 0.00 | 0.00 | 43 | 1013.8 |
| 20260505150512 | 54 | 1 | 0.9 | 5.2 | 0.00 | 0.00 | 0.00 | 43 | 1013.8 |
| 20260505140508 | 54 | 149 | 0.9 | 3.5 | 0.00 | 0.00 | 0.00 | 40 | 1013.9 |
| 20260505125011 | 42 | 20 | 0.0 | 0.0 | 0.00 | 0.00 | 0.00 | 49 | 1013.8 |
| 20260505124522 | 42 | 20 | 0.0 | 0.0 | 0.00 | 0.00 | 0.00 | 49 | 1013.7 |
| 20260505124009 | 42 | 20 | 0.0 | 0.9 | 0.00 | 0.00 | 0.00 | 50 | 1013.7 |
| 20260505123509 | 42 | 20 | 0.0 | 0.9 | 0.00 | 0.00 | 0.00 | 49 | 1013.7 |
| 20260505123025 | 43 | 7 | 0.0 | 0.9 | 0.00 | 0.00 | 0.00 | 48 | 1013.6 |
| 20260505122509 | 43 | 7 | 0.0 | 0.9 | 0.00 | 0.00 | 0.00 | 47 | 1013.6 |
| 20260505122010 | 44 | 52 | 0.0 | 0.9 | 0.00 | 0.00 | 0.00 | 46 | 1013.6 |
| 20260505121512 | 44 | 53 | 0.0 | 0.9 | 0.00 | 0.00 | 0.00 | 46 | 1013.6 |
| 20260505121004 | 45 | 53 | 0.0 | 0.9 | 0.00 | 0.00 | 0.00 | 44 | 1013.5 |
| 20260505120505 | 46 | 53 | 0.0 | 1.7 | 0.00 | 0.00 | 0.00 | 43 | 1013.3 |
| 20260505120042 | 47 | 56 | 0.0 | 1.7 | 0.00 | 0.00 | 0.00 | 42 | 1013.2 |
| 20260505115504 | 47 | 7 | 0.0 | 2.6 | 0.00 | 0.00 | 0.00 | 42 | 1013.1 |
| 20260505115006 | 48 | 304 | 0.0 | 2.6 | 0.00 | 0.00 | 0.00 | 41 | 1013.3 |
| 20260505114523 | 48 | 98 | 0.0 | 2.6 | 0.00 | 0.00 | 0.00 | 41 | 1013.4 |
| 20260505114006 | 48 | 79 | 0.0 | 2.6 | 0.00 | 0.00 | 0.00 | 41 | 1013.4 |
| 20260505113508 | 47 | 350 | 0.9 | 1.7 | 0.00 | 0.00 | 0.00 | 41 | 1013.4 |
| 20260505113027 | 47 | 316 | 0.0 | 1.7 | 0.00 | 0.00 | 0.00 | 41 | 1013.4 |
| 20260505112508 | 47 | 327 | 0.0 | 2.6 | 0.00 | 0.00 | 0.00 | 41 | 1013.4 |
| 20260505112008 | 48 | 323 | 0.0 | 2.6 | 0.00 | 0.00 | 0.00 | 41 | 1013.4 |
| 20260505111528 | 48 | 19 | 0.0 | 1.7 | 0.00 | 0.00 | 0.00 | 40 | 1013.3 |
| 20260505111010 | 48 | 76 | 0.0 | 1.7 | 0.00 | 0.00 | 0.00 | 40 | 1013.1 |
| 20260505110509 | 48 | 319 | 0.0 | 2.6 | 0.00 | 0.00 | 0.00 | 40 | 1013.0 |
| 20260505102010 | 49 | 70 | 0.0 | 0.9 | 0.00 | 0.00 | 0.00 | 41 | 1012.8 |
| 20260505101526 | 49 | 336 | 0.0 | 3.5 | 0.00 | 0.00 | 0.00 | 39 | 1013.0 |
| 20260505101010 | 49 | 270 | 0.0 | 3.5 | 0.00 | 0.00 | 0.00 | 40 | 1013.0 |
| 20260505100510 | 49 | 69 | 0.0 | 0.9 | 0.00 | 0.00 | 0.00 | 40 | 1013.1 |
| 20260505100028 | 49 | 285 | 0.0 | 1.7 | 0.00 | 0.00 | 0.00 | 40 | 1013.0 |
| 20260505095508 | 49 | 276 | 0.0 | 2.6 | 0.00 | 0.00 | 0.00 | 40 | 1012.8 |
| 20260505095013 | 49 | 272 | 0.0 | 2.6 | 0.00 | 0.00 | 0.00 | 39 | 1012.9 |
| 20260505094529 | 49 | 83 | 0.0 | 0.9 | 0.00 | 0.00 | 0.00 | 39 | 1013.0 |
| 20260505094009 | 49 | 98 | 0.0 | 0.9 | 0.00 | 0.00 | 0.00 | 39 | 1013.2 |
| 20260505093505 | 50 | 98 | 0.0 | 0.9 | 0.00 | 0.00 | 0.00 | 38 | 1013.2 |
| 20260505093018 | 50 | 98 | 0.0 | 0.9 | 0.00 | 0.00 | 0.00 | 37 | 1013.1 |
| 20260505092507 | 51 | 13 | 0.0 | 0.9 | 0.00 | 0.00 | 0.00 | 37 | 1013.0 |
| 20260505092009 | 51 | 13 | 0.0 | 0.9 | 0.00 | 0.00 | 0.00 | 37 | 1013.0 |
| 20260505091527 | 51 | 6 | 0.0 | 0.9 | 0.00 | 0.00 | 0.00 | 36 | 1013.1 |
| 20260505091009 | 52 | 6 | 0.0 | 0.9 | 0.00 | 0.00 | 0.00 | 35 | 1013.2 |
| 20260505090508 | 52 | 6 | 0.0 | 0.9 | 0.00 | 0.00 | 0.00 | 34 | 1013.3 |
| 20260505090037 | 53 | 6 | 0.0 | 0.9 | 0.00 | 0.00 | 0.00 | 34 | 1013.4 |
| 20260505085510 | 53 | 6 | 0.0 | 2.6 | 0.00 | 0.00 | 0.00 | 33 | 1013.4 |
| 20260505085008 | 53 | 301 | 0.9 | 7.0 | 0.00 | 0.00 | 0.00 | 33 | 1013.4 |
| 20260505084529 | 53 | 1 | 0.9 | 7.0 | 0.00 | 0.00 | 0.00 | 33 | 1013.3 |
| 20260505084013 | 53 | 346 | 0.0 | 4.3 | 0.00 | 0.00 | 0.00 | 33 | 1013.4 |
| 20260505083507 | 53 | 356 | 0.0 | 4.3 | 0.00 | 0.00 | 0.00 | 33 | 1013.6 |
| 20260505083030 | 53 | 338 | 0.9 | 4.3 | 0.00 | 0.00 | 0.00 | 34 | 1013.9 |
| 20260505082507 | 53 | 345 | 0.0 | 2.6 | 0.00 | 0.00 | 0.00 | 33 | 1013.9 |
| 20260505082008 | 53 | 287 | 0.0 | 2.6 | 0.00 | 0.00 | 0.00 | 33 | 1013.9 |
| 20260505081522 | 53 | 12 | 0.0 | 2.6 | 0.00 | 0.00 | 0.00 | 33 | 1014.0 |
| 20260505081008 | 53 | 330 | 0.0 | 1.7 | 0.00 | 0.00 | 0.00 | 33 | 1013.9 |
| 20260505080508 | 54 | 327 | 0.0 | 2.6 | 0.00 | 0.00 | 0.00 | 33 | 1013.8 |
| 20260505080003 | 54 | 63 | 0.0 | 2.6 | 0.00 | 0.00 | 0.00 | 33 | 1014.0 |
| 20260505075502 | 54 | 31 | 0.0 | 2.6 | 0.00 | 0.00 | 0.00 | 33 | 1013.9 |
| 20260505075003 | 54 | 352 | 0.0 | 2.6 | 0.00 | 0.00 | 0.00 | 33 | 1014.0 |
| 20260505074503 | 54 | 231 | 0.0 | 2.6 | 0.00 | 0.00 | 0.00 | 33 | 1013.9 |
| 20260505074002 | 54 | 66 | 0.0 | 7.0 | 0.00 | 0.00 | 0.00 | 32 | 1013.8 |
| 20260505073501 | 54 | 134 | 0.9 | 7.0 | 0.00 | 0.00 | 0.00 | 32 | 1013.9 |
| 20260505073003 | 54 | 277 | 1.7 | 7.0 | 0.00 | 0.00 | 0.00 | 32 | 1013.8 |
| 20260505072504 | 54 | 111 | 0.0 | 5.2 | 0.00 | 0.00 | 0.00 | 31 | 1013.7 |
| 20260505072002 | 55 | 308 | 0.9 | 5.2 | 0.00 | 0.00 | 0.00 | 31 | 1013.8 |
| 20260505071513 | 55 | 350 | 0.9 | 4.3 | 0.00 | 0.00 | 0.00 | 31 | 1013.7 |
| 20260505071003 | 55 | 356 | 0.9 | 4.3 | 0.00 | 0.00 | 0.00 | 31 | 1013.7 |
| 20260505070505 | 55 | 271 | 0.9 | 7.8 | 0.00 | 0.00 | 0.00 | 31 | 1013.7 |
| 20260505070003 | 55 | 263 | 1.7 | 7.8 | 0.00 | 0.00 | 0.00 | 31 | 1013.7 |
| 20260505065503 | 55 | 172 | 0.0 | 7.0 | 0.00 | 0.00 | 0.00 | 31 | 1013.6 |
| 20260505065003 | 55 | 63 | 1.7 | 7.0 | 0.00 | 0.00 | 0.00 | 31 | 1013.7 |
| 20260505064506 | 55 | 292 | 0.9 | 7.0 | 0.00 | 0.00 | 0.00 | 31 | 1013.6 |
| 20260505064003 | 55 | 282 | 0.9 | 7.0 | 0.00 | 0.00 | 0.00 | 31 | 1013.5 |
| 20260505063502 | 55 | 284 | 0.9 | 3.5 | 0.00 | 0.00 | 0.00 | 31 | 1013.5 |
| 20260505063003 | 56 | 287 | 0.9 | 4.3 | 0.00 | 0.00 | 0.00 | 31 | 1013.4 |
| 20260505062503 | 56 | 327 | 0.9 | 4.3 | 0.00 | 0.00 | 0.00 | 32 | 1013.4 |
| 20260505062003 | 56 | 309 | 0.0 | 4.3 | 0.00 | 0.00 | 0.00 | 31 | 1013.3 |
| 20260505061507 | 56 | 23 | 0.0 | 4.3 | 0.00 | 0.00 | 0.00 | 31 | 1013.4 |
| 20260505061003 | 56 | 244 | 0.9 | 3.5 | 0.00 | 0.00 | 0.00 | 31 | 1013.4 |
| 20260505060503 | 56 | 338 | 0.9 | 4.3 | 0.00 | 0.00 | 0.00 | 32 | 1013.6 |
| 20260505060007 | 56 | 326 | 0.9 | 4.3 | 0.00 | 0.00 | 0.00 | 32 | 1013.5 |
| 20260505055503 | 55 | 20 | 0.9 | 3.5 | 0.00 | 0.00 | 0.00 | 32 | 1013.5 |
| 20260505055003 | 55 | 268 | 0.9 | 3.5 | 0.00 | 0.00 | 0.00 | 33 | 1013.5 |
| 20260505054505 | 55 | 35 | 0.0 | 2.6 | 0.00 | 0.00 | 0.00 | 34 | 1013.6 |
| 20260505054003 | 55 | 343 | 0.0 | 2.6 | 0.00 | 0.00 | 0.00 | 34 | 1013.7 |
| 20260505053504 | 55 | 296 | 0.0 | 1.7 | 0.00 | 0.00 | 0.00 | 34 | 1013.7 |
| 20260505053002 | 54 | 296 | 0.0 | 1.7 | 0.00 | 0.00 | 0.00 | 34 | 1013.7 |
| 20260505052503 | 54 | 276 | 0.0 | 2.6 | 0.00 | 0.00 | 0.00 | 34 | 1013.8 |
| 20260505052002 | 54 | 278 | 0.0 | 2.6 | 0.00 | 0.00 | 0.00 | 35 | 1013.8 |
| 20260505051506 | 53 | 94 | 0.0 | 0.9 | 0.00 | 0.00 | 0.00 | 35 | 1013.8 |
| 20260505051006 | 53 | 94 | 0.0 | 0.9 | 0.00 | 0.00 | 0.00 | 35 | 1013.8 |
| 20260505050503 | 53 | 94 | 0.0 | 0.9 | 0.00 | 0.00 | 0.00 | 35 | 1013.8 |
| 20260505041508 | 56 | 130 | 0.0 | 3.5 | 0.00 | 0.00 | 0.00 | 30 | 1013.8 |
| 20260505041003 | 56 | 349 | 0.0 | 3.5 | 0.00 | 0.00 | 0.00 | 29 | 1013.8 |
| 20260505040503 | 56 | 8 | 0.0 | 2.6 | 0.00 | 0.00 | 0.00 | 29 | 1013.9 |
| 20260505040004 | 56 | 307 | 0.0 | 2.6 | 0.00 | 0.00 | 0.00 | 28 | 1013.8 |
| 20260505035504 | 56 | 356 | 0.0 | 0.9 | 0.00 | 0.00 | 0.00 | 28 | 1013.8 |
| 20260505035003 | 57 | 355 | 0.0 | 0.9 | 0.00 | 0.00 | 0.00 | 28 | 1013.8 |
| 20260505034510 | 57 | 307 | 0.0 | 4.3 | 0.00 | 0.00 | 0.00 | 27 | 1013.9 |
| 20260505034006 | 57 | 286 | 0.0 | 4.3 | 0.00 | 0.00 | 0.00 | 27 | 1013.7 |
| 20260505033503 | 57 | 236 | 0.0 | 1.7 | 0.00 | 0.00 | 0.00 | 27 | 1013.7 |
| 20260505033006 | 58 | 355 | 0.0 | 1.7 | 0.00 | 0.00 | 0.00 | 26 | 1013.6 |
| 20260505032503 | 58 | 267 | 0.0 | 2.6 | 0.00 | 0.00 | 0.00 | 26 | 1013.5 |
| 20260505032003 | 58 | 282 | 0.0 | 2.6 | 0.00 | 0.00 | 0.00 | 25 | 1013.4 |
| 20260505031512 | 58 | 303 | 0.0 | 2.6 | 0.00 | 0.00 | 0.00 | 25 | 1013.3 |
| 20260505031003 | 59 | 270 | 0.0 | 2.6 | 0.00 | 0.00 | 0.00 | 25 | 1013.2 |
| 20260505030504 | 59 | 318 | 0.9 | 3.5 | 0.00 | 0.00 | 0.00 | 24 | 1013.2 |
| 20260505030004 | 59 | 59 | 0.9 | 3.5 | 0.00 | 0.00 | 0.00 | 24 | 1013.1 |
| 20260505025504 | 59 | 326 | 0.0 | 7.0 | 0.00 | 0.00 | 0.00 | 24 | 1013.1 |
| 20260505025004 | 60 | 282 | 0.9 | 7.0 | 0.00 | 0.00 | 0.00 | 24 | 1013.0 |
| 20260505024515 | 60 | 105 | 0.9 | 7.0 | 0.00 | 0.00 | 0.00 | 23 | 1012.9 |
| 20260505024003 | 60 | 347 | 0.9 | 5.2 | 0.00 | 0.00 | 0.00 | 23 | 1012.9 |
| 20260505023503 | 60 | 294 | 0.0 | 5.2 | 0.00 | 0.00 | 0.00 | 23 | 1012.9 |
| 20260505023011 | 60 | 341 | 0.9 | 7.8 | 0.00 | 0.00 | 0.00 | 22 | 1012.7 |
| 20260505022503 | 61 | 343 | 0.9 | 7.8 | 0.00 | 0.00 | 0.00 | 22 | 1012.7 |
| 20260505022003 | 61 | 330 | 0.0 | 4.3 | 0.00 | 0.00 | 0.00 | 21 | 1012.7 |
| 20260505021513 | 61 | 8 | 0.9 | 5.2 | 0.00 | 0.00 | 0.00 | 22 | 1012.8 |
| 20260505021006 | 61 | 266 | 0.0 | 5.2 | 0.00 | 0.00 | 0.00 | 21 | 1012.8 |
| 20260505020503 | 61 | 317 | 0.9 | 5.2 | 0.00 | 0.00 | 0.00 | 21 | 1012.9 |
| 20260505020006 | 61 | 7 | 0.9 | 3.5 | 0.00 | 0.00 | 0.00 | 20 | 1012.9 |
| 20260505015504 | 61 | 269 | 0.9 | 6.1 | 0.00 | 0.00 | 0.00 | 20 | 1012.8 |
| 20260505015004 | 61 | 279 | 1.7 | 6.1 | 0.00 | 0.00 | 0.00 | 20 | 1012.7 |
| 20260505014509 | 61 | 292 | 0.9 | 5.2 | 0.00 | 0.00 | 0.00 | 20 | 1012.5 |
| 20260505014003 | 62 | 354 | 0.9 | 4.3 | 0.00 | 0.00 | 0.00 | 20 | 1012.5 |
| 20260505013504 | 62 | 305 | 0.9 | 4.3 | 0.00 | 0.00 | 0.00 | 20 | 1012.4 |
| 20260505013007 | 62 | 345 | 0.9 | 3.5 | 0.00 | 0.00 | 0.00 | 19 | 1012.3 |
| 20260505012503 | 62 | 270 | 1.7 | 4.3 | 0.00 | 0.00 | 0.00 | 19 | 1012.3 |
| 20260505012004 | 62 | 274 | 0.0 | 4.3 | 0.00 | 0.00 | 0.00 | 19 | 1012.3 |
| 20260505011509 | 63 | 39 | 0.9 | 3.5 | 0.00 | 0.00 | 0.00 | 19 | 1012.3 |
| 20260505011004 | 63 | 341 | 0.9 | 2.6 | 0.00 | 0.00 | 0.00 | 19 | 1012.3 |
| 20260505010503 | 63 | 271 | 0.0 | 2.6 | 0.00 | 0.00 | 0.00 | 19 | 1012.3 |
| 20260505010009 | 63 | 69 | 0.9 | 1.7 | 0.00 | 0.00 | 0.00 | 19 | 1012.5 |
| 20260505005503 | 64 | 21 | 0.0 | 4.3 | 0.00 | 0.00 | 0.00 | 19 | 1012.3 |
| 20260505005004 | 64 | 136 | 0.9 | 5.2 | 0.00 | 0.00 | 0.00 | 18 | 1012.4 |
| 20260505004519 | 64 | 297 | 0.9 | 7.0 | 0.00 | 0.00 | 0.00 | 18 | 1012.5 |
| 20260505004003 | 64 | 277 | 2.6 | 7.0 | 0.00 | 0.00 | 0.00 | 18 | 1012.4 |
| 20260505003503 | 64 | 342 | 0.9 | 6.1 | 0.00 | 0.00 | 0.00 | 19 | 1012.3 |
| 20260505003012 | 64 | 283 | 0.9 | 6.1 | 0.00 | 0.00 | 0.00 | 19 | 1012.4 |